Tracking 21082 objects as of 6-Aug-2020
HD Live streaming from Space Station
objects crossing your sky now

BLOCK DM-SL R/B

Track BLOCK DM-SL R/B now!


NORAD ID: 39774
Int'l Code: 2014-030B
Perigee: 425.1 km
Apogee: 35,447.4 km
Inclination: 0.7 °
Period: 628.6 minutes
Semi major axis: 24307 km
RCS: Unknown
Launch date: May 26, 2014
Source: Sea Launch (SEAL)
Launch site: SEA LAUNCH (SEAL)

Note: This is a ROCKET BODY
aabbcc
Your satellite tracking list
Your tracking list is empty




NASA's NSSDC Master Catalog

Two Line Element Set (TLE):
1 39774U 14030B   20218.08526443 -.00000057 +00000-0 +10511-3 0  9997
2 39774 000.7297 342.9644 7204086 067.1490 353.6642 02.29086177051741
Source of the keplerian elements: AFSPC